Time,TemperatureF,DewpointF,PressureIn,WindDirection,WindDirectionDegrees,WindSpeedMPH,WindSpeedGustMPH,Humidity,HourlyPrecipIn,Conditions,Clouds,dailyrainin,SoftwareType,DateUTC
2013-01-06 00:07:00,9.9,7.1,29.89,NNW,336,0.0,3.0,88,0.00,,,0.00,Wunderground v.1.15,2013-01-06 05:07:00,
2013-01-06 00:17:00,10.1,7.3,29.90,NNW,336,0.0,0.0,88,0.00,,,0.00,Wunderground v.1.15,2013-01-06 05:17:00,
2013-01-06 00:27:00,9.9,7.1,29.89,NNW,336,0.0,1.0,88,0.00,,,0.00,Wunderground v.1.15,2013-01-06 05:27:00,
2013-01-06 00:38:00,9.7,6.9,29.88,NNW,336,1.0,2.0,88,0.00,,,0.00,Wunderground v.1.15,2013-01-06 05:38:00,
2013-01-06 00:47:00,9.7,6.9,29.88,NNW,336,1.0,1.0,88,0.00,,,0.00,Wunderground v.1.15,2013-01-06 05:47:00,
2013-01-06 00:58:00,9.2,6.4,29.88,NNW,336,1.0,1.0,88,0.00,,,0.00,Wunderground v.1.15,2013-01-06 05:58:00,
2013-01-06 01:07:00,9.1,6.3,29.87,NNW,336,1.0,2.0,88,0.00,,,0.00,Wunderground v.1.15,2013-01-06 06:07:00,
2013-01-06 01:17:00,9.4,6.8,29.87,NNW,336,0.0,0.0,89,0.00,,,0.00,Wunderground v.1.15,2013-01-06 06:17:00,
2013-01-06 01:27:00,9.7,7.1,29.86,NNW,336,0.0,0.0,89,0.00,,,0.00,Wunderground v.1.15,2013-01-06 06:27:00,
2013-01-06 01:37:00,10.0,7.4,29.86,NNW,336,0.0,0.0,89,0.00,,,0.00,Wunderground v.1.15,2013-01-06 06:37:00,
2013-01-06 01:47:00,10.4,7.8,29.87,NNW,336,2.0,2.0,89,0.00,,,0.00,Wunderground v.1.15,2013-01-06 06:47:00,
2013-01-06 01:57:00,10.9,8.0,29.86,NNW,336,1.0,1.0,88,0.00,,,0.00,Wunderground v.1.15,2013-01-06 06:57:00,
2013-01-06 02:07:00,10.7,7.6,29.86,NNW,336,0.0,3.0,87,0.00,,,0.00,Wunderground v.1.15,2013-01-06 07:07:00,
2013-01-06 02:17:00,10.9,8.0,29.86,NNW,336,0.0,0.0,88,0.00,,,0.00,Wunderground v.1.15,2013-01-06 07:17:00,
2013-01-06 02:27:00,10.7,7.6,29.86,NNW,336,0.0,0.0,87,0.00,,,0.00,Wunderground v.1.15,2013-01-06 07:27:00,
2013-01-06 02:37:00,10.1,7.0,29.84,NNW,336,1.0,1.0,87,0.00,,,0.00,Wunderground v.1.15,2013-01-06 07:37:00,
2013-01-06 02:47:00,9.5,6.7,29.83,NNW,336,1.0,1.0,88,0.00,,,0.00,Wunderground v.1.15,2013-01-06 07:47:00,
2013-01-06 02:57:00,9.5,6.9,29.84,NNW,336,1.0,2.0,89,0.00,,,0.00,Wunderground v.1.15,2013-01-06 07:57:00,
2013-01-06 03:07:00,9.4,6.6,29.83,NNW,336,2.0,2.0,88,0.00,,,0.00,Wunderground v.1.15,2013-01-06 08:07:00,
2013-01-06 03:17:00,9.5,6.9,29.82,NNW,336,1.0,2.0,89,0.00,,,0.00,Wunderground v.1.15,2013-01-06 08:17:00,
2013-01-06 03:27:00,10.2,7.9,29.82,NNW,336,1.0,1.0,90,0.00,,,0.00,Wunderground v.1.15,2013-01-06 08:27:00,
2013-01-06 03:37:00,10.7,8.1,29.82,NNW,336,0.0,0.0,89,0.00,,,0.00,Wunderground v.1.15,2013-01-06 08:37:00,
2013-01-06 03:47:00,10.2,7.1,29.82,NNW,336,0.0,0.0,87,0.00,,,0.00,Wunderground v.1.15,2013-01-06 08:47:00,
2013-01-06 03:57:00,10.2,7.6,29.81,NNW,336,0.0,0.0,89,0.00,,,0.00,Wunderground v.1.15,2013-01-06 08:57:00,
2013-01-06 04:07:00,10.2,7.6,29.80,NNW,336,0.0,4.0,89,0.00,,,0.00,Wunderground v.1.15,2013-01-06 09:07:00,
2013-01-06 04:17:00,10.1,7.5,29.80,NNW,336,0.0,0.0,89,0.00,,,0.00,Wunderground v.1.15,2013-01-06 09:17:00,
2013-01-06 04:27:00,10.3,7.7,29.79,NNW,336,1.0,2.0,89,0.00,,,0.00,Wunderground v.1.15,2013-01-06 09:27:00,
2013-01-06 04:37:00,10.0,7.4,29.78,NNW,336,2.0,2.0,89,0.00,,,0.00,Wunderground v.1.15,2013-01-06 09:37:00,
2013-01-06 04:47:00,10.1,7.5,29.77,NNW,336,0.0,0.0,89,0.00,,,0.00,Wunderground v.1.15,2013-01-06 09:47:00,
2013-01-06 04:57:00,10.3,7.7,29.77,NNW,336,0.0,0.0,89,0.00,,,0.00,Wunderground v.1.15,2013-01-06 09:57:00,
2013-01-06 05:07:00,10.6,8.0,29.77,NNW,336,0.0,3.0,89,0.00,,,0.00,Wunderground v.1.15,2013-01-06 10:07:00,
2013-01-06 05:17:00,10.8,8.2,29.76,NNW,336,0.0,0.0,89,0.00,,,0.00,Wunderground v.1.15,2013-01-06 10:17:00,
2013-01-06 05:27:00,10.9,8.3,29.76,NNW,336,0.0,0.0,89,0.00,,,0.00,Wunderground v.1.15,2013-01-06 10:27:00,
2013-01-06 05:37:00,11.0,8.4,29.75,NNW,336,1.0,1.0,89,0.00,,,0.00,Wunderground v.1.15,2013-01-06 10:37:00,
2013-01-06 05:47:00,11.0,8.4,29.75,NNW,336,0.0,0.0,89,0.00,,,0.00,Wunderground v.1.15,2013-01-06 10:47:00,
2013-01-06 05:57:00,11.0,8.4,29.75,NNW,336,1.0,1.0,89,0.00,,,0.00,Wunderground v.1.15,2013-01-06 10:57:00,
2013-01-06 06:07:00,11.1,8.5,29.75,NNW,336,1.0,3.0,89,0.00,,,0.00,Wunderground v.1.15,2013-01-06 11:07:00,
2013-01-06 06:17:00,11.2,8.6,29.75,NNW,336,1.0,1.0,89,0.00,,,0.00,Wunderground v.1.15,2013-01-06 11:17:00,
2013-01-06 06:27:00,11.4,9.0,29.75,NNW,336,0.0,1.0,90,0.00,,,0.00,Wunderground v.1.15,2013-01-06 11:27:00,
2013-01-06 06:37:00,11.4,9.0,29.74,NNW,336,0.0,0.0,90,0.00,,,0.00,Wunderground v.1.15,2013-01-06 11:37:00,
2013-01-06 06:47:00,11.3,8.9,29.74,NNW,336,0.0,0.0,90,0.00,,,0.00,Wunderground v.1.15,2013-01-06 11:47:00,
2013-01-06 06:57:00,11.5,9.1,29.74,NNW,336,0.0,0.0,90,0.00,,,0.00,Wunderground v.1.15,2013-01-06 11:57:00,
2013-01-06 07:07:00,11.7,9.3,29.73,NNW,336,0.0,3.0,90,0.00,,,0.00,Wunderground v.1.15,2013-01-06 12:07:00,
2013-01-06 07:17:00,11.9,9.5,29.74,NNW,336,1.0,1.0,90,0.00,,,0.00,Wunderground v.1.15,2013-01-06 12:17:00,
2013-01-06 07:27:00,11.9,9.5,29.74,NNW,336,0.0,0.0,90,0.00,,,0.00,Wunderground v.1.15,2013-01-06 12:27:00,
2013-01-06 07:37:00,12.0,9.6,29.73,NNW,336,0.0,0.0,90,0.00,,,0.00,Wunderground v.1.15,2013-01-06 12:37:00,
2013-01-06 07:47:00,12.2,9.8,29.72,NNW,336,0.0,0.0,90,0.00,,,0.00,Wunderground v.1.15,2013-01-06 12:47:00,
2013-01-06 07:57:00,12.1,9.7,29.73,NNW,336,0.0,1.0,90,0.00,,,0.00,Wunderground v.1.15,2013-01-06 12:57:00,
2013-01-06 08:07:00,12.3,9.9,29.72,NNW,336,0.0,3.0,90,0.00,,,0.00,Wunderground v.1.15,2013-01-06 13:07:00,
2013-01-06 08:17:00,12.8,10.7,29.72,NNW,336,0.0,1.0,91,0.00,,,0.00,Wunderground v.1.15,2013-01-06 13:17:00,
2013-01-06 08:27:00,12.5,9.9,29.72,NNW,336,0.0,0.0,89,0.00,,,0.00,Wunderground v.1.15,2013-01-06 13:27:00,
2013-01-06 08:37:00,12.9,10.5,29.72,NNW,336,0.0,0.0,90,0.00,,,0.00,Wunderground v.1.15,2013-01-06 13:37:00,
2013-01-06 08:47:00,13.6,11.0,29.72,NNW,336,1.0,1.0,89,0.00,,,0.00,Wunderground v.1.15,2013-01-06 13:47:00,
2013-01-06 08:57:00,14.3,11.7,29.72,NNW,336,0.0,0.0,89,0.00,,,0.00,Wunderground v.1.15,2013-01-06 13:57:00,
2013-01-06 09:07:00,15.0,12.1,29.72,NNW,336,0.0,2.0,88,0.00,,,0.00,Wunderground v.1.15,2013-01-06 14:07:00,
2013-01-06 09:17:00,16.3,13.9,29.72,NNW,336,0.0,0.0,90,0.00,,,0.00,Wunderground v.1.15,2013-01-06 14:17:00,
2013-01-06 09:27:00,17.5,14.3,29.72,NNW,336,0.0,0.0,87,0.00,,,0.00,Wunderground v.1.15,2013-01-06 14:27:00,
2013-01-06 09:37:00,18.2,14.7,29.72,NNW,336,0.0,0.0,86,0.00,,,0.00,Wunderground v.1.15,2013-01-06 14:37:00,
2013-01-06 09:47:00,18.4,14.9,29.72,NNW,336,1.0,1.0,86,0.00,,,0.00,Wunderground v.1.15,2013-01-06 14:47:00,
2013-01-06 09:57:00,18.9,15.4,29.71,NNW,336,0.0,0.0,86,0.00,,,0.00,Wunderground v.1.15,2013-01-06 14:57:00,
2013-01-06 10:07:00,19.8,16.0,29.71,NNW,336,1.0,1.0,85,0.00,,,0.00,Wunderground v.1.15,2013-01-06 15:07:00,
2013-01-06 10:17:00,20.5,17.0,29.70,NNW,336,0.0,0.0,86,0.00,,,0.00,Wunderground v.1.15,2013-01-06 15:17:00,
2013-01-06 10:27:00,20.7,16.6,29.69,NNW,336,2.0,2.0,84,0.00,,,0.00,Wunderground v.1.15,2013-01-06 15:27:00,
2013-01-06 10:37:00,20.2,16.4,29.69,NNW,336,1.0,1.0,85,0.00,,,0.00,Wunderground v.1.15,2013-01-06 15:37:00,
2013-01-06 10:47:00,20.4,16.9,29.68,NNW,336,0.0,0.0,86,0.00,,,0.00,Wunderground v.1.15,2013-01-06 15:47:00,
2013-01-06 10:57:00,21.5,18.0,29.68,NNW,336,0.0,0.0,86,0.00,,,0.00,Wunderground v.1.15,2013-01-06 15:57:00,
2013-01-06 11:07:00,22.3,18.5,29.67,NNW,336,0.0,3.0,85,0.00,,,0.00,Wunderground v.1.15,2013-01-06 16:07:00,
2013-01-06 11:17:00,23.0,19.2,29.67,NNW,336,0.0,0.0,85,0.00,,,0.00,Wunderground v.1.15,2013-01-06 16:17:00,
2013-01-06 11:27:00,22.8,18.4,29.66,NNW,336,1.0,2.0,83,0.00,,,0.00,Wunderground v.1.15,2013-01-06 16:27:00,
2013-01-06 11:37:00,21.9,17.8,29.66,NNW,336,1.0,3.0,84,0.00,,,0.00,Wunderground v.1.15,2013-01-06 16:37:00,
2013-01-06 11:47:00,21.3,17.8,29.66,NNW,336,1.0,1.0,86,0.00,,,0.00,Wunderground v.1.15,2013-01-06 16:47:00,
2013-01-06 11:57:00,21.5,18.2,29.65,NNW,336,0.0,0.0,87,0.00,,,0.00,Wunderground v.1.15,2013-01-06 16:57:00,
2013-01-06 12:07:00,21.8,18.5,29.65,NNW,336,1.0,1.0,87,0.00,,,0.00,Wunderground v.1.15,2013-01-06 17:07:00,
2013-01-06 12:17:00,22.0,18.7,29.65,NNW,336,0.0,0.0,87,0.00,,,0.00,Wunderground v.1.15,2013-01-06 17:17:00,
2013-01-06 12:27:00,22.4,19.4,29.65,NNW,336,0.0,0.0,88,0.00,,,0.00,Wunderground v.1.15,2013-01-06 17:27:00,
2013-01-06 12:37:00,23.3,20.0,29.65,NNW,336,0.0,0.0,87,0.00,,,0.00,Wunderground v.1.15,2013-01-06 17:37:00,
2013-01-06 12:47:00,23.7,20.4,29.64,NNW,336,0.0,0.0,87,0.00,,,0.00,Wunderground v.1.15,2013-01-06 17:47:00,
2013-01-06 12:57:00,24.1,20.5,29.64,NNW,336,0.0,0.0,86,0.00,,,0.00,Wunderground v.1.15,2013-01-06 17:57:00,
2013-01-06 13:07:00,24.4,20.8,29.63,NNW,336,0.0,3.0,86,0.00,,,0.00,Wunderground v.1.15,2013-01-06 18:07:00,
2013-01-06 13:17:00,24.7,21.1,29.63,NNW,336,0.0,2.0,86,0.00,,,0.00,Wunderground v.1.15,2013-01-06 18:17:00,
2013-01-06 13:27:00,24.8,21.2,29.63,NNW,336,0.0,0.0,86,0.00,,,0.00,Wunderground v.1.15,2013-01-06 18:27:00,
2013-01-06 13:37:00,25.1,21.5,29.63,NNW,336,0.0,0.0,86,0.00,,,0.00,Wunderground v.1.15,2013-01-06 18:37:00,
2013-01-06 13:47:00,25.2,21.6,29.63,NNW,336,0.0,0.0,86,0.00,,,0.00,Wunderground v.1.15,2013-01-06 18:47:00,
2013-01-06 13:57:00,25.1,21.8,29.63,NNW,336,1.0,1.0,87,0.00,,,0.00,Wunderground v.1.15,2013-01-06 18:57:00,
2013-01-06 14:07:00,25.3,22.0,29.63,NNW,336,0.0,2.0,87,0.00,,,0.00,Wunderground v.1.15,2013-01-06 19:07:00,
2013-01-06 14:17:00,25.7,22.4,29.62,NNW,336,0.0,0.0,87,0.00,,,0.00,Wunderground v.1.15,2013-01-06 19:17:00,
2013-01-06 14:27:00,26.1,22.8,29.63,NNW,336,0.0,0.0,87,0.00,,,0.00,Wunderground v.1.15,2013-01-06 19:27:00,
2013-01-06 14:37:00,26.3,23.0,29.63,NNW,336,0.0,0.0,87,0.00,,,0.00,Wunderground v.1.15,2013-01-06 19:37:00,
2013-01-06 14:47:00,26.4,23.3,29.62,NNW,336,0.0,0.0,88,0.00,,,0.00,Wunderground v.1.15,2013-01-06 19:47:00,
2013-01-06 15:17:00,25.8,23.0,29.61,NNW,336,0.0,0.0,89,0.00,,,0.00,Wunderground v.1.15,2013-01-06 20:17:00,
2013-01-06 15:27:00,25.9,23.4,29.61,NNW,336,1.0,1.0,90,0.00,,,0.00,Wunderground v.1.15,2013-01-06 20:27:00,
2013-01-06 15:37:00,25.8,23.3,29.62,NNW,336,0.0,0.0,90,0.00,,,0.00,Wunderground v.1.15,2013-01-06 20:37:00,
2013-01-06 15:47:00,26.1,23.6,29.61,NNW,336,0.0,0.0,90,0.00,,,0.00,Wunderground v.1.15,2013-01-06 20:47:00,
2013-01-06 15:57:00,26.0,23.5,29.62,NNW,336,0.0,0.0,90,0.00,,,0.00,Wunderground v.1.15,2013-01-06 20:57:00,
2013-01-06 16:07:00,25.8,23.3,29.61,NNW,336,0.0,1.0,90,0.00,,,0.00,Wunderground v.1.15,2013-01-06 21:07:00,
2013-01-06 16:17:00,25.6,23.3,29.62,NNW,336,0.0,0.0,91,0.00,,,0.00,Wunderground v.1.15,2013-01-06 21:17:00,
2013-01-06 16:27:00,25.7,23.4,29.62,NNW,336,0.0,0.0,91,0.00,,,0.00,Wunderground v.1.15,2013-01-06 21:27:00,
2013-01-06 16:37:00,25.9,23.9,29.62,NNW,336,0.0,0.0,92,0.00,,,0.00,Wunderground v.1.15,2013-01-06 21:37:00,
2013-01-06 16:47:00,26.1,24.1,29.62,NNW,336,1.0,3.0,92,0.00,,,0.00,Wunderground v.1.15,2013-01-06 21:47:00,
2013-01-06 16:57:00,26.0,24.0,29.62,NNW,336,1.0,1.0,92,0.00,,,0.00,Wunderground v.1.15,2013-01-06 21:57:00,
2013-01-06 17:07:00,26.0,24.3,29.62,NNW,336,0.0,3.0,93,0.00,,,0.00,Wunderground v.1.15,2013-01-06 22:07:00,
2013-01-06 17:17:00,25.9,24.2,29.62,NNW,336,0.0,0.0,93,0.00,,,0.00,Wunderground v.1.15,2013-01-06 22:17:00,
2013-01-06 17:27:00,26.0,24.3,29.62,NNW,336,0.0,1.0,93,0.00,,,0.00,Wunderground v.1.15,2013-01-06 22:27:00,
2013-01-06 17:37:00,26.1,24.4,29.63,NNW,336,1.0,1.0,93,0.00,,,0.00,Wunderground v.1.15,2013-01-06 22:37:00,
2013-01-06 17:47:00,26.1,24.4,29.63,NNW,336,0.0,1.0,93,0.00,,,0.00,Wunderground v.1.15,2013-01-06 22:47:00,
2013-01-06 17:57:00,26.3,24.8,29.63,South,176,1.0,2.0,94,0.00,,,0.00,Wunderground v.1.15,2013-01-06 22:57:00,
2013-01-06 18:07:00,26.4,24.9,29.63,South,176,2.0,4.0,94,0.00,,,0.00,Wunderground v.1.15,2013-01-06 23:07:00,
2013-01-06 18:17:00,26.4,24.9,29.63,South,190,2.0,2.0,94,0.00,,,0.00,Wunderground v.1.15,2013-01-06 23:17:00,
2013-01-06 18:27:00,26.3,24.8,29.63,SSW,192,1.0,2.0,94,0.00,,,0.00,Wunderground v.1.15,2013-01-06 23:27:00,
2013-01-06 18:37:00,26.3,24.8,29.63,SSW,192,2.0,3.0,94,0.00,,,0.00,Wunderground v.1.15,2013-01-06 23:37:00,
2013-01-06 18:47:00,26.3,24.8,29.63,SSW,192,1.0,1.0,94,0.00,,,0.00,Wunderground v.1.15,2013-01-06 23:47:00,
2013-01-06 18:57:00,26.4,24.9,29.64,SSW,192,1.0,1.0,94,0.00,,,0.00,Wunderground v.1.15,2013-01-06 23:57:00,
2013-01-06 19:07:00,26.4,24.9,29.64,SSW,192,1.0,4.0,94,0.00,,,0.00,Wunderground v.1.15,2013-01-07 00:07:00,
2013-01-06 19:17:00,26.6,25.1,29.64,South,190,2.0,2.0,94,0.00,,,0.00,Wunderground v.1.15,2013-01-07 00:17:00,
2013-01-06 19:27:00,26.6,25.1,29.64,South,183,1.0,2.0,94,0.00,,,0.00,Wunderground v.1.15,2013-01-07 00:27:00,
2013-01-06 19:37:00,26.5,25.0,29.64,South,183,0.0,0.0,94,0.00,,,0.00,Wunderground v.1.15,2013-01-07 00:37:00,
2013-01-06 19:47:00,26.6,25.1,29.64,South,183,0.0,0.0,94,0.00,,,0.00,Wunderground v.1.15,2013-01-07 00:47:00,
2013-01-06 19:57:00,26.6,25.1,29.64,South,183,0.0,0.0,94,0.00,,,0.00,Wunderground v.1.15,2013-01-07 00:57:00,
2013-01-06 20:07:00,26.5,25.0,29.64,South,183,0.0,5.0,94,0.00,,,0.00,Wunderground v.1.15,2013-01-07 01:07:00,
2013-01-06 20:17:00,26.5,25.0,29.63,South,183,1.0,1.0,94,0.00,,,0.00,Wunderground v.1.15,2013-01-07 01:17:00,
2013-01-06 20:27:00,26.4,24.9,29.63,South,183,0.0,0.0,94,0.00,,,0.00,Wunderground v.1.15,2013-01-07 01:27:00,
2013-01-06 20:37:00,25.8,24.1,29.63,South,183,0.0,2.0,93,0.00,,,0.00,Wunderground v.1.15,2013-01-07 01:37:00,
2013-01-06 20:47:00,25.2,23.7,29.64,South,183,0.0,0.0,94,0.00,,,0.00,Wunderground v.1.15,2013-01-07 01:47:00,
2013-01-06 20:57:00,25.3,24.1,29.63,South,183,0.0,2.0,95,0.00,,,0.00,Wunderground v.1.15,2013-01-07 01:57:00,
2013-01-06 21:07:00,25.7,24.5,29.63,South,183,1.0,1.0,95,0.00,,,0.00,Wunderground v.1.15,2013-01-07 02:07:00,
2013-01-06 21:17:00,25.8,24.6,29.63,South,183,0.0,1.0,95,0.00,,,0.00,Wunderground v.1.15,2013-01-07 02:17:00,
2013-01-06 21:27:00,25.9,24.7,29.63,South,183,0.0,0.0,95,0.00,,,0.00,Wunderground v.1.15,2013-01-07 02:27:00,
2013-01-06 21:37:00,26.2,25.0,29.63,South,183,0.0,0.0,95,0.00,,,0.00,Wunderground v.1.15,2013-01-07 02:37:00,
2013-01-06 21:47:00,26.5,25.3,29.63,South,183,0.0,0.0,95,0.00,,,0.00,Wunderground v.1.15,2013-01-07 02:47:00,
2013-01-06 21:57:00,26.8,25.6,29.63,South,183,0.0,1.0,95,0.00,,,0.00,Wunderground v.1.15,2013-01-07 02:57:00,
2013-01-06 22:07:00,27.0,25.8,29.64,South,183,0.0,3.0,95,0.00,,,0.00,Wunderground v.1.15,2013-01-07 03:07:00,
2013-01-06 22:17:00,27.0,25.8,29.64,South,183,0.0,0.0,95,0.00,,,0.00,Wunderground v.1.15,2013-01-07 03:17:00,
2013-01-06 22:27:00,26.9,25.7,29.64,South,183,0.0,0.0,95,0.00,,,0.00,Wunderground v.1.15,2013-01-07 03:27:00,
2013-01-06 22:38:00,27.0,25.8,29.64,South,183,0.0,0.0,95,0.00,,,0.00,Wunderground v.1.15,2013-01-07 03:38:00,
2013-01-06 22:47:00,27.2,26.0,29.64,South,183,0.0,0.0,95,0.00,,,0.00,Wunderground v.1.15,2013-01-07 03:47:00,
2013-01-06 22:57:00,27.3,26.1,29.64,South,183,0.0,0.0,95,0.00,,,0.00,Wunderground v.1.15,2013-01-07 03:57:00,
2013-01-06 23:07:00,27.2,26.0,29.64,South,183,0.0,2.0,95,0.00,,,0.00,Wunderground v.1.15,2013-01-07 04:07:00,
2013-01-06 23:17:00,27.1,25.6,29.64,South,183,2.0,2.0,94,0.00,,,0.00,Wunderground v.1.15,2013-01-07 04:17:00,
2013-01-06 23:27:00,26.7,25.2,29.64,South,183,1.0,1.0,94,0.00,,,0.00,Wunderground v.1.15,2013-01-07 04:27:00,
2013-01-06 23:37:00,26.4,24.9,29.65,South,183,0.0,0.0,94,0.00,,,0.00,Wunderground v.1.15,2013-01-07 04:37:00,
2013-01-06 23:47:00,26.0,24.5,29.65,South,183,0.0,0.0,94,0.00,,,0.00,Wunderground v.1.15,2013-01-07 04:47:00,
2013-01-06 23:57:00,26.2,25.0,29.65,South,183,0.0,0.0,95,0.00,,,0.00,Wunderground v.1.15,2013-01-07 04:57:00,